Date String (YYYY-MM-DD hh:mm:ss) UTC,Instrument flags,Ambient pressure (hPa),Sample flow (lpm),Bypass flow (lpm),Sample temperature (°C),Ambient temperature (°C),ASC tube jacket temperature (°C),LED temperature (°C),Box temperature (°C),Sample RH (%),Span deviation,Mass concentration (μg/m³),Mass concentration (μg/m³),Mass concentration (μg/m³)
DateTimeUTC,F1_M11,P_M11,Q1_M11,Q2_M11,T1_M11,T2_M11,T3_M11,T4_M11,T5_M11,U1_M11,ZSPAN_M11,X0_M11,X2_M11,X1_M11
2021-10-06 00:00:00,,0828.3,5.00,0.00,29.0,27.6,00.0,38.0,30.8,13.7,0000.4,0018.73,0005.48,0003.58
2021-10-06 00:01:00,,0828.2,5.01,0.00,29.0,27.9,00.0,38.0,30.9,13.8,0000.0,0017.56,0005.46,0003.57
2021-10-06 00:02:00,,0828.2,5.00,0.00,29.1,28.1,00.0,38.0,31.0,13.8,0000.4,0017.63,0005.46,0003.59
2021-10-06 00:03:00,,0828.2,4.99,0.00,29.2,28.3,00.0,38.0,31.1,13.8,0000.0,0018.32,0005.45,0003.61
2021-10-06 00:04:00,,0828.3,5.01,0.00,29.2,28.5,00.0,38.1,31.2,13.8,0000.1,0017.50,0005.45,0003.63
2021-10-06 00:05:00,,0828.3,5.01,0.00,29.3,28.7,00.0,38.1,31.3,13.6,0001.7,0017.80,0005.40,0003.63
2021-10-06 00:06:00,,0828.3,4.99,0.00,29.4,28.7,00.0,38.1,31.3,13.4,0001.1,0017.89,0005.39,0003.63
2021-10-06 00:07:00,,0828.3,5.00,0.00,29.3,26.9,00.0,38.2,30.8,13.4,0001.5,0018.45,0005.41,0003.63
2021-10-06 00:08:00,,0828.3,5.00,0.00,29.1,25.4,00.0,38.1,30.3,13.5,0001.4,0019.37,0005.42,0003.64
2021-10-06 00:09:00,,0828.3,5.01,0.00,29.0,25.6,00.0,38.1,30.4,13.6,0001.6,0019.73,0005.37,0003.66
2021-10-06 00:10:00,,0828.3,5.00,0.00,29.0,26.0,00.0,38.1,30.5,13.6,0000.5,0019.34,0005.32,0003.66
2021-10-06 00:11:00,,0828.3,4.99,0.00,29.0,26.5,00.0,38.1,30.6,13.6,0002.4,0019.22,0005.27,0003.66
2021-10-06 00:12:00,,0828.3,5.00,0.00,29.0,27.0,00.0,38.1,30.7,13.7,0001.2,0019.64,0005.20,0003.66
2021-10-06 00:13:00,,0828.3,4.99,0.00,29.0,27.4,00.0,38.1,30.9,13.6,0000.0,0019.77,0005.15,0003.64
2021-10-06 00:14:00,,0828.3,5.01,0.00,29.1,27.8,00.0,38.1,31.0,13.6,0000.0,0019.52,0005.18,0003.62
2021-10-06 00:15:00,,0828.3,5.00,0.00,29.1,28.0,00.0,38.1,31.1,13.5,0000.0,0018.99,0005.14,0003.61
2021-10-06 00:16:00,,0828.3,4.99,0.00,29.2,28.3,00.0,38.1,31.2,13.6,0000.0,0018.48,0005.07,0003.60
2021-10-06 00:17:00,,0828.4,5.01,0.00,29.3,28.5,00.0,38.1,31.2,12.8,0000.0,0018.30,0005.04,0003.59
2021-10-06 00:18:00,,0828.4,4.99,0.00,29.3,28.6,00.0,38.2,31.3,12.8,0000.0,0017.39,0005.02,0003.57
2021-10-06 00:19:00,,0828.4,5.01,0.00,29.4,28.8,00.0,38.2,31.4,12.8,0000.0,0017.68,0005.00,0003.55
2021-10-06 00:20:00,,0828.4,5.00,0.00,29.5,28.9,00.0,38.2,31.4,12.8,0000.0,0017.81,0004.99,0003.53
2021-10-06 00:21:00,,0828.4,5.00,0.00,29.5,28.8,00.0,38.3,31.4,12.7,0000.0,0018.15,0004.99,0003.52
2021-10-06 00:22:00,,0828.4,5.00,0.00,29.4,26.9,00.0,38.3,30.9,12.7,0000.0,0018.41,0005.02,0003.52
2021-10-06 00:23:00,,0828.3,5.00,0.00,29.2,25.5,00.0,38.3,30.5,12.8,0000.5,0017.94,0005.04,0003.52
2021-10-06 00:24:00,,0828.3,5.01,0.00,29.1,25.8,00.0,38.3,30.6,12.8,0002.6,0017.33,0005.05,0003.52
2021-10-06 00:25:00,,0828.3,5.00,0.00,29.1,26.2,00.0,38.2,30.6,12.9,0003.3,0015.88,0004.98,0003.51
2021-10-06 00:26:00,,0828.4,4.99,0.00,29.1,26.7,00.0,38.2,30.7,12.9,0002.5,0016.84,0004.99,0003.50
2021-10-06 00:27:00,,0828.3,5.02,0.00,29.1,27.1,00.0,38.2,30.9,12.9,0001.2,0017.27,0004.96,0003.49
2021-10-06 00:28:00,,0828.3,5.00,0.00,29.1,27.5,00.0,38.2,31.0,12.8,0001.6,0017.29,0005.00,0003.49
2021-10-06 00:29:00,,0828.3,4.99,0.00,29.2,27.9,00.0,38.2,31.1,13.1,0001.4,0018.11,0005.04,0003.50
2021-10-06 00:30:00,,0828.3,4.99,0.00,29.2,28.1,00.0,38.2,31.2,13.0,0001.8,0017.98,0005.02,0003.50
2021-10-06 00:31:00,,0828.4,5.00,0.00,29.3,28.3,00.0,38.2,31.2,12.9,0001.8,0017.42,0005.02,0003.50
2021-10-06 00:32:00,,0828.3,4.99,0.00,29.4,28.5,00.0,38.2,31.3,12.9,0000.4,0017.14,0004.98,0003.50
2021-10-06 00:33:00,,0828.4,5.01,0.00,29.4,28.7,00.0,38.3,31.4,13.2,0000.0,0017.91,0004.97,0003.50
2021-10-06 00:34:00,,0828.4,5.00,0.00,29.5,28.8,00.0,38.3,31.4,13.2,0000.0,0019.51,0005.02,0003.51
2021-10-06 00:35:00,,0828.4,5.00,0.00,29.5,28.9,00.0,38.3,31.5,13.4,0000.0,0021.16,0005.02,0003.53
2021-10-06 00:36:00,,0828.4,5.01,0.00,29.5,27.8,00.0,38.4,31.2,13.2,0000.0,0021.86,0005.02,0003.55
2021-10-06 00:37:00,,0828.3,5.01,0.00,29.4,25.8,00.0,38.4,30.7,13.2,0000.0,0021.10,0005.02,0003.57
2021-10-06 00:38:00,,0828.4,5.00,0.00,29.2,25.5,00.0,38.3,30.6,13.0,0000.0,0021.10,0005.05,0003.56
2021-10-06 00:39:00,,0828.3,5.00,0.00,29.2,25.9,00.0,38.3,30.7,13.3,0000.0,0021.07,0005.04,0003.56
2021-10-06 00:40:00,,0828.4,5.00,0.00,29.1,26.4,00.0,38.3,30.8,13.3,0000.0,0020.29,0004.99,0003.56
2021-10-06 00:41:00,,0828.4,5.00,0.00,29.1,26.9,00.0,38.3,30.8,13.4,0000.0,0020.18,0004.98,0003.55
2021-10-06 00:42:00,,0828.4,5.00,0.00,29.2,27.3,00.0,38.2,30.9,13.5,-000.1,0021.05,0005.00,0003.56
2021-10-06 00:43:00,,0828.4,5.01,0.00,29.2,27.7,00.0,38.2,31.0,13.2,-000.6,0022.14,0005.03,0003.55
2021-10-06 00:44:00,,0828.5,4.99,0.00,29.2,28.0,00.0,38.2,31.1,13.4,-000.3,0021.15,0004.97,0003.54
2021-10-06 00:45:00,,0828.5,5.01,0.00,29.3,28.2,00.0,38.3,31.2,13.2,-000.1,0019.53,0004.88,0003.51
2021-10-06 00:46:00,,0828.5,5.00,0.00,29.3,28.4,00.0,38.3,31.2,13.2,-000.2,0019.01,0004.84,0003.50
2021-10-06 00:47:00,,0828.5,5.00,0.00,29.4,28.6,00.0,38.3,31.3,13.4,0000.0,0019.28,0004.87,0003.48
2021-10-06 00:48:00,,0828.5,5.01,0.00,29.4,28.7,00.0,38.3,31.4,13.3,0000.0,0018.93,0004.85,0003.46
2021-10-06 00:49:00,,0828.5,5.01,0.00,29.5,28.8,00.0,38.4,31.4,13.3,0000.0,0018.74,0004.88,0003.47
2021-10-06 00:50:00,,0828.5,4.99,0.00,29.6,28.9,00.0,38.4,31.5,13.3,0000.0,0018.89,0004.87,0003.48
2021-10-06 00:51:00,,0828.5,5.00,0.00,29.6,28.6,00.0,38.4,31.4,13.5,0000.0,0019.01,0004.90,0003.49
2021-10-06 00:52:00,,0828.5,4.99,0.00,29.5,26.6,00.0,38.4,30.9,13.6,0000.0,0018.62,0004.95,0003.51
2021-10-06 00:53:00,,0828.4,5.00,0.00,29.3,25.4,00.0,38.4,30.5,13.8,0000.0,0018.58,0004.93,0003.51
2021-10-06 00:54:00,,0828.5,5.01,0.00,29.2,25.7,00.0,38.4,30.6,13.9,0000.0,0017.69,0004.92,0003.51
2021-10-06 00:55:00,,0828.4,4.99,0.00,29.1,26.2,00.0,38.3,30.7,13.8,0000.0,0017.53,0004.96,0003.51
2021-10-06 00:56:00,,0828.4,5.01,0.00,29.1,26.7,00.0,38.3,30.8,13.8,0000.0,0018.92,0004.94,0003.51
2021-10-06 00:57:00,,0828.5,4.98,0.00,29.2,27.1,00.0,38.3,30.9,13.7,0000.0,0018.65,0004.96,0003.50
2021-10-06 00:58:00,,0828.5,5.00,0.00,29.2,27.5,00.0,38.3,31.0,13.9,0000.0,0018.38,0004.94,0003.50
2021-10-06 00:59:00,,0828.5,5.00,0.00,29.2,27.8,00.0,38.3,31.1,14.0,0002.7,0019.58,0004.96,0003.50
